[[{"header":{"parameterUnit":"m.s-1","parameterCategory":1,"la1":30.2991,"la2":30.254,"lo1":-89.0895,"lo2":-89.0444,"dy":0.0017,"dx":0.0017,"nx":28,"ny":28,"refTime":"2025-07-04T09:00:00:Z","depth":0,"parameterNumber":2,"parameterNumberName":"U-component_of_WINDS"},"data":[0,0,0,0,0,0,0,0,0,0,0,0,0,0,0,0,0,0,0,0,0,0,0,0,0,0,0,0,0,0,0,0,0,0,0,0,0,0,0,0,0,0,0,0,0,0,0,0,0,0,0,0,0,0,0,0,0,0,1.0982,1.0984,0,1.1145,1.1147,1.1148,1.1145,1.1143,1.114,1.1138,1.1307,1.1314,1.132,0,0,0,0,0,0,0,0,0,0,0,0,0,1.0671,1.0677,1.0982,1.0984,1.0986,1.1144,1.1147,1.1149,1.1145,1.1143,1.114,1.1137,1.1305,1.1313,1.1321,0,0,0,0,0,0,0,0,0,0,0,0,0,1.0817,1.0679,1.0982,1.1003,1.1007,1.1144,1.1147,1.115,1.1146,1.1143,1.1139,1.1136,1.1302,1.1312,1.1322,1.1449,0,0,1.1352,1.1356,0,0,0,0,0,0,0,0,1.0809,1.0829,1.0998,1.1002,1.1006,1.1121,1.1099,1.125,1.1147,1.1093,1.1138,1.1134,1.1248,1.1262,1.13,1.1457,1.1464,1.1353,1.1359,1.1363,1.1366,0,0,0,0,0,0,0,1.0799,1.0822,1.1047,1.1001,1.1006,1.1006,1.1023,1.1128,1.1187,1.1098,1.1098,1.1117,1.125,1.1291,1.1304,1.1466,1.1352,1.1361,1.1367,1.1371,1.1738,1.1742,0,0,0,0,0,0,1.0784,1.0813,1.1041,1.1051,1.0897,1.1014,1.1033,1.1088,1.1186,1.1198,1.112,1.1116,1.1275,1.1293,1.131,1.1467,1.1363,1.1372,1.1378,1.1734,1.1739,1.1743,0,0,0,0,0,0,1.0777,1.0804,1.1035,1.0933,1.0962,1.1023,1.1084,1.1093,1.1133,1.1203,1.1214,1.115,1.1273,1.1296,1.1415,1.1473,1.1376,1.1385,1.173,1.1735,1.1741,1.1781,0,0,0,0,0,0,1.0768,1.0802,1.085,1.0934,1.0967,1.1136,1.1088,1.1098,1.115,1.1147,1.1234,1.1246,1.1273,1.14,1.1424,1.1485,1.1393,1.1725,1.1732,1.1739,1.1775,1.1788,1.1799,0,0,0,0,0,1.0757,1.0855,1.0853,1.088,1.1029,1.1139,1.1159,1.1187,1.1155,1.1205,1.1249,1.1243,1.1462,1.1412,1.144,1.1504,1.1721,1.173,1.1738,1.177,1.1785,1.1798,0,0,0,0,0,0,1.0777,1.0866,1.0865,1.0992,1.1058,1.1139,1.1202,1.1202,1.128,1.1274,1.1306,1.1326,1.1445,1.1486,1.1429,1.1633,1.1588,1.1602,1.1602,1.1618,1.1629,1.1618,1.1401,0,0,0,0,0,1.0796,1.0878,1.0952,1.1057,1.109,1.114,1.119,1.1206,1.1276,1.1304,1.1357,1.1426,1.1511,1.1566,1.1648,1.178,1.1801,1.1838,1.185,1.1859,1.1872,1.1948,1.1966,1.1771,1.1771,1.1771,0,0,1.0837,1.0896,1.0945,1.1063,1.1116,1.1201,1.1164,1.1255,1.1319,1.1318,1.1434,1.1475,1.1555,1.1681,1.174,1.1719,1.193,1.187,1.1877,1.1885,1.1958,1.1977,1.1993,1.1777,1.1776,1.1775,0,0,1.0955,1.1007,1.1101,1.1155,1.1236,1.1269,1.1292,1.1373,1.14,1.1516,1.1518,1.1595,1.1739,1.1796,1.1844,1.1985,1.1983,1.201,1.2073,1.2146,1.2161,1.2175,1.2228,1.2246,1.2022,1.2023,1.2023,0,1.0996,1.1123,1.115,1.1242,1.1295,1.1297,1.1394,1.1445,1.1549,1.1586,1.156,1.1743,1.1796,1.1938,1.1972,1.201,1.2039,1.2002,1.2157,1.2171,1.2184,1.2235,1.2254,1.2026,1.2025,1.2025,1.2025,0,1.1171,1.1259,1.1326,1.1426,1.1485,1.1579,1.1622,1.1679,1.169,1.1726,1.1846,1.1909,1.2005,1.2039,1.2051,1.2183,1.2168,1.2149,1.2105,1.2205,1.2253,1.2273,1.203,1.2029,1.2028,1.2027,0,0,1.1307,1.142,1.1445,1.1491,1.1581,1.165,1.1745,1.1838,1.1887,1.1959,1.204,1.2163,1.2147,1.2201,1.2219,1.2283,1.2393,1.2257,1.226,1.2282,1.2546,1.2561,1.2583,1.2392,1.2395,1.2398,1.254,0,1.1436,1.1604,1.1631,1.1779,1.1862,1.1866,1.1949,1.2013,1.205,1.2126,1.2166,1.2254,1.2224,1.2258,1.2321,1.2366,1.2447,1.2356,1.247,1.2474,1.2452,1.2607,1.2623,1.2754,1.2559,1.2562,1.2564,0,1.1609,1.1685,1.1842,1.1921,1.1957,1.2031,1.212,1.2192,1.2266,1.2288,1.2349,1.236,1.246,1.241,1.2549,1.2487,1.2535,1.2564,1.257,1.2584,1.2526,1.2627,1.2796,1.2816,1.2593,1.2591,1.2589,0,1.1696,1.1837,1.1949,1.1988,1.2084,1.2136,1.2178,1.2249,1.2304,1.2381,1.2417,1.2505,1.2554,1.2622,1.2657,1.2616,1.2795,1.2747,1.2818,1.2817,1.2857,1.2854,1.3038,1.2884,1.2884,1.2883,1.2883,0,1.1839,1.1935,1.199,1.2059,1.2167,1.2198,1.2305,1.2346,1.2409,1.2487,1.2495,1.2569,1.2609,1.2689,1.2717,1.283,1.2851,1.2873,1.2879,1.2874,1.2871,1.2907,1.29,1.2888,1.2887,1.2886,1.2885,0,1.1954,1.1995,1.2118,1.2198,1.2221,1.2297,1.2366,1.2435,1.247,1.2569,1.2594,1.2651,1.2746,1.2787,1.2903,1.2922,1.3052,1.305,1.3027,1.303,1.3099,1.3093,1.3314,1.3346,1.3168,1.317,1.3171,0,1.2044,1.2118,1.2206,1.2259,1.2303,1.2388,1.2444,1.2477,1.2535,1.2626,1.2684,1.2778,1.2856,1.3007,1.306,1.3149,1.3152,1.3223,1.3165,1.3158,1.3156,1.3152,1.3161,1.3234,1.3236,1.3237,1.3239,0,1.2199,1.2216,1.2296,1.2384,1.245,1.2521,1.259,1.2633,1.2677,1.2742,1.2839,1.2899,1.3019,1.3114,1.3206,1.3251,1.3254,1.3256,1.3278,1.3274,1.3258,1.327,1.3058,1.3251,1.325,1.3249,1.3248,1.3248,1.2307,1.2373,1.2446,1.2536,1.2591,1.2656,1.2724,1.2769,1.285,1.2949,1.2964,1.3068,1.3142,1.3267,1.3315,1.3398,1.338,1.3411,1.3419,1.3427,1.3432,1.3243,1.3414,1.3414,1.3414,1.3414,1.3413,0,1.2464,1.2511,1.2593,1.269,1.2761,1.2755,1.2832,1.2892,1.2983,1.3051,1.3127,1.324,1.3332,1.3391,1.3485,1.354,1.3543,1.3564,1.3561,1.3572,1.3442,1.3415,1.3559,1.3559,1.3559,1.3559,1.3559,1.3559,1.2555,1.2668,1.2694,1.2835,1.2882,1.2984,1.3028,1.3089,1.3143,1.3268,1.3345,1.3383,1.3448,1.3546,1.3631,1.3647,1.3682,1.3703,1.3718,1.3596,1.3581,1.3566,1.3541,1.371,1.371,1.3842,1.3843,1.3844]},{"header":{"parameterUnit":"m.s-1","parameterCategory":1,"la1":30.2991,"la2":30.254,"lo1":-89.0895,"lo2":-89.0444,"dy":0.0017,"dx":0.0017,"nx":28,"ny":28,"refTime":"2025-07-04T09:00:00:Z","depth":0,"parameterNumber":3,"parameterNumberName":"V-component_of_WINDS"},"data":[0,0,0,0,0,0,0,0,0,0,0,0,0,0,0,0,0,0,0,0,0,0,0,0,0,0,0,0,0,0,0,0,0,0,0,0,0,0,0,0,0,0,0,0,0,0,0,0,0,0,0,0,0,0,0,0,0,0,-0.094,-0.094,0,-0.0968,-0.0969,-0.0969,-0.1034,-0.1035,-0.1036,-0.1038,-0.1066,-0.1065,-0.1065,0,0,0,0,0,0,0,0,0,0,0,0,0,-0.0942,-0.0941,-0.094,-0.094,-0.0941,-0.0968,-0.0969,-0.0969,-0.1034,-0.1035,-0.1037,-0.1038,-0.1066,-0.1065,-0.1065,0,0,0,0,0,0,0,0,0,0,0,0,0,-0.0953,-0.0941,-0.094,-0.0976,-0.098,-0.0968,-0.0969,-0.0969,-0.1033,-0.1035,-0.1037,-0.1039,-0.1066,-0.1065,-0.1065,-0.102,0,0,-0.1062,-0.1062,0,0,0,0,0,0,0,0,-0.0952,-0.0952,-0.0971,-0.0974,-0.0978,-0.1,-0.098,-0.0986,-0.1033,-0.1013,-0.1038,-0.104,-0.1042,-0.1044,-0.1044,-0.1021,-0.1023,-0.1062,-0.1062,-0.1062,-0.1061,0,0,0,0,0,0,0,-0.0951,-0.0952,-0.0951,-0.0971,-0.0975,-0.0991,-0.0995,-0.0981,-0.1016,-0.1015,-0.102,-0.1022,-0.1044,-0.1045,-0.1046,-0.1023,-0.1062,-0.1062,-0.1061,-0.1061,-0.0966,-0.0964,0,0,0,0,0,0,-0.0945,-0.0951,-0.095,-0.0952,-0.097,-0.099,-0.0994,-0.0991,-0.1016,-0.1022,-0.102,-0.1025,-0.1045,-0.1046,-0.1047,-0.0996,-0.1062,-0.1061,-0.1061,-0.0968,-0.0965,-0.0963,0,0,0,0,0,0,-0.0945,-0.0945,-0.0949,-0.0953,-0.0955,-0.0987,-0.0983,-0.099,-0.0991,-0.102,-0.1027,-0.1014,-0.1047,-0.1048,-0.1027,-0.0998,-0.1061,-0.106,-0.097,-0.0967,-0.0964,-0.0895,0,0,0,0,0,0,-0.0945,-0.0944,-0.0927,-0.0952,-0.0954,-0.0928,-0.0982,-0.0989,-0.0989,-0.0996,-0.1017,-0.1022,-0.1049,-0.1027,-0.1026,-0.0998,-0.1059,-0.0973,-0.0969,-0.0965,-0.09,-0.089,-0.0881,0,0,0,0,0,-0.0945,-0.0906,-0.0926,-0.0925,-0.0934,-0.0926,-0.0928,-0.0959,-0.0987,-0.097,-0.099,-0.1021,-0.1002,-0.1025,-0.1023,-0.0995,-0.0975,-0.097,-0.0966,-0.0904,-0.0892,-0.0881,0,0,0,0,0,0,-0.0876,-0.091,-0.0932,-0.09,-0.091,-0.0937,-0.0917,-0.0945,-0.0947,-0.0952,-0.0991,-0.0996,-0.0969,-0.0981,-0.1005,-0.0954,-0.0994,-0.0989,-0.0947,-0.0936,-0.0927,-0.0924,-0.1059,0,0,0,0,0,-0.0858,-0.0849,-0.0879,-0.0848,-0.0852,-0.0883,-0.0881,-0.0905,-0.0916,-0.0921,-0.0939,-0.0948,-0.0945,-0.0941,-0.0939,-0.0903,-0.0908,-0.0883,-0.0873,-0.0866,-0.086,-0.0842,-0.0831,-0.0948,-0.0948,-0.0948,0,0,-0.0818,-0.0836,-0.0828,-0.0835,-0.0845,-0.0835,-0.0886,-0.0873,-0.0867,-0.0919,-0.09,-0.0913,-0.0927,-0.0898,-0.0886,-0.0906,-0.083,-0.086,-0.0853,-0.0852,-0.0836,-0.0825,-0.0815,-0.0945,-0.0945,-0.0946,0,0,-0.0742,-0.0755,-0.0731,-0.074,-0.0755,-0.0777,-0.0771,-0.0795,-0.0806,-0.0788,-0.0827,-0.082,-0.0812,-0.082,-0.0824,-0.0753,-0.0782,-0.0751,-0.0702,-0.0684,-0.0675,-0.0667,-0.0641,-0.0631,-0.0746,-0.0746,-0.0746,0,-0.0692,-0.0678,-0.0714,-0.0699,-0.0701,-0.075,-0.0725,-0.0733,-0.0747,-0.0747,-0.077,-0.0763,-0.0775,-0.0749,-0.0732,-0.0733,-0.0728,-0.0748,-0.0673,-0.0665,-0.0659,-0.0634,-0.0625,-0.0742,-0.0743,-0.0743,-0.0743,0,-0.0615,-0.0606,-0.0585,-0.0597,-0.0597,-0.0577,-0.0611,-0.0606,-0.0631,-0.065,-0.0632,-0.0649,-0.0651,-0.0647,-0.0671,-0.0625,-0.0637,-0.0666,-0.0706,-0.0643,-0.0621,-0.0612,-0.0736,-0.0738,-0.0739,-0.074,0,0,-0.0494,-0.0529,-0.052,-0.0527,-0.0548,-0.0542,-0.0525,-0.0528,-0.0524,-0.0532,-0.0519,-0.0513,-0.054,-0.0544,-0.0569,-0.0553,-0.0496,-0.0585,-0.0586,-0.0567,-0.0446,-0.0423,-0.0412,-0.0517,-0.0515,-0.0514,-0.0445,0,-0.0422,-0.0395,-0.0428,-0.0394,-0.0386,-0.0433,-0.0418,-0.043,-0.0448,-0.0444,-0.0465,-0.0459,-0.0496,-0.0499,-0.0485,-0.0506,-0.0472,-0.0512,-0.0504,-0.0503,-0.0498,-0.0401,-0.0376,-0.031,-0.0437,-0.0435,-0.0434,0,-0.0334,-0.0339,-0.0304,-0.0329,-0.0327,-0.0313,-0.0319,-0.0315,-0.033,-0.0344,-0.0349,-0.038,-0.0366,-0.0406,-0.0387,-0.0413,-0.0413,-0.0422,-0.0421,-0.042,-0.0464,-0.0396,-0.029,-0.0279,-0.0421,-0.0422,-0.0423,0,-0.0248,-0.0247,-0.0226,-0.023,-0.0259,-0.0248,-0.026,-0.0276,-0.0277,-0.0283,-0.0283,-0.0287,-0.0289,-0.0292,-0.0323,-0.0349,-0.03,-0.0343,-0.0311,-0.031,-0.0297,-0.0297,-0.0188,-0.0298,-0.0299,-0.0299,-0.0299,0,-0.0164,-0.014,-0.0188,-0.0175,-0.015,-0.0189,-0.0164,-0.018,-0.0195,-0.0186,-0.0228,-0.0218,-0.0261,-0.0256,-0.0281,-0.0261,-0.0262,-0.0273,-0.028,-0.0269,-0.0267,-0.0267,-0.0272,-0.0296,-0.0297,-0.0297,-0.0298,0,-0.0063,-0.0094,-0.0074,-0.0104,-0.0111,-0.0091,-0.0116,-0.0106,-0.0128,-0.0116,-0.0116,-0.015,-0.0147,-0.0179,-0.0182,-0.0198,-0.0167,-0.0182,-0.0162,-0.0166,-0.0132,-0.0134,-0.0018,-0.0005,-0.0125,-0.0124,-0.0123,0,-0.0006,0.0011,-0.0017,-0.0015,-0.0024,-0.0019,-0.002,-0.0058,-0.0058,-0.0074,-0.0061,-0.0062,-0.0064,-0.0058,-0.0083,-0.0086,-0.01,-0.006,-0.0101,-0.0091,-0.0099,-0.0099,-0.0097,-0.005,-0.0049,-0.0048,-0.0047,0,0.0099,0.0082,0.0082,0.0077,0.0077,0.0071,0.0062,0.0066,0.0024,0.0027,0.0029,0.0027,0.0023,0.0023,0.0015,0.0003,-0.0028,-0.0034,-0.0026,-0.0014,-0.0002,-0.0007,-0.0137,-0.0036,-0.0037,-0.0038,-0.0038,-0.0039,0.018,0.0192,0.0174,0.0176,0.0164,0.0157,0.0165,0.0144,0.0145,0.0139,0.0115,0.0122,0.0105,0.0091,0.0081,0.0085,0.0065,0.0076,0.0079,0.0082,0.0089,-0.0005,0.0083,0.0083,0.0083,0.0082,0.0082,0,0.0283,0.0269,0.027,0.0259,0.0259,0.0228,0.0216,0.0219,0.0225,0.0212,0.021,0.0212,0.0211,0.0185,0.0181,0.0189,0.0175,0.019,0.019,0.0187,0.0107,0.0101,0.0201,0.0201,0.0201,0.0201,0.0201,0.0201,0.0337,0.0357,0.0337,0.0351,0.0336,0.0341,0.0337,0.033,0.0319,0.0323,0.0322,0.0304,0.0286,0.028,0.0277,0.027,0.0271,0.0291,0.0279,0.0204,0.0193,0.0182,0.0177,0.0291,0.0291,0.0359,0.0359,0.036]}]]